Weather History for Crestview, FL

Change the Weather History Date:

Thursday, December 5, 2013

  Actual Average Record
Temperature  
Mean Temperature 74 °F -  
Max Temperature 77 °F - - ()
Min Temperature 71 °F - - ()
Cooling Degree Days 9    
Growing Degree Days 24 (Base 50)    
Moisture  
Dew Point 71 °F    
Average Humidity 95    
Maximum Humidity 100    
Minimum Humidity 75    
Precipitation  
Precipitation 0.02 in - - ()
Sea Level Pressure  
Sea Level Pressure 30.04 in    
Wind  
Wind Speed 11 mph (South)    
Max Wind Speed 18 mph    
Max Gust Speed 24 mph    
Visibility 9 miles    
Events Rain    
T = Trace of Precipitation, MM = Missing Value Source: NWS Daily Summary

Daily Weather History Graph

Daily Weather History Graph

Search for Another Location

Airport:

Trip Planner

Search our weather history database for the weather conditions in past years. The results will help you decide how hot, cold, wet, or windy it might be!

Date:

Astronomy

Dec. 05, 2013 Rise Set
Actual Time 6:29 AM CST 4:44 PM CST
Civil Twilight 6:02 AM CST 5:10 PM CST
Nautical Twilight 5:32 AM CST 5:40 PM CST
Astronomical Twilight 5:03 AM CST 6:10 PM CST
Moon 8:54 AM CST (12/5) 7:58 PM CST (12/5)
Length of Visible Light 11h 08m
Length of Day
10h 15m
Waxing Crescent, 11% of the Moon is Illuminated
Dec 5
Waxing Crescent
Dec 9
First Quarter
Dec 17
Full
Dec 25
Last Quarter
Jan 1
New

Hourly Weather History & Observations

Time (CST) Temp. Dew Point Humidity Pressure Visibility Wind Dir Wind Speed Gust Speed Precip Events Conditions
12:01 AM 71.6 °F 71.6 °F 100% 29.99 in 10.0 mi South 12.7 mph - N/A   Light Drizzle
12:16 AM 71.6 °F 71.6 °F 100% 30.00 in 6.0 mi SSW 9.2 mph - N/A Rain Light Rain
12:50 AM 71.6 °F 71.6 °F 100% 30.00 in 10.0 mi SSW 10.4 mph - N/A   Overcast
12:58 AM 72.3 °F 72.0 °F 99% 30.01 in 10.0 mi SSW 10.4 mph - 0.02 in   Overcast
1:08 AM 71.6 °F 71.6 °F 100% 30.00 in 10.0 mi SSW 12.7 mph - N/A   Mostly Cloudy
1:33 AM 71.6 °F 71.6 °F 100% 30.00 in 10.0 mi SSW 10.4 mph - N/A   Mostly Cloudy
1:58 AM 72.1 °F 71.8 °F 99% 30.02 in 10.0 mi SSW 9.2 mph - N/A   Overcast
2:06 AM 71.6 °F 71.6 °F 100% 30.01 in 10.0 mi SSW 9.2 mph - N/A   Overcast
2:16 AM 71.6 °F 71.6 °F 100% 30.01 in 10.0 mi SSW 9.2 mph - N/A   Overcast
2:23 AM 71.6 °F 71.6 °F 100% 30.01 in 10.0 mi SSW 10.4 mph - N/A   Overcast
2:58 AM 72.1 °F 72.0 °F 99% 30.02 in 10.0 mi SSW 11.5 mph - N/A   Overcast
3:58 AM 72.0 °F 72.0 °F 100% 30.01 in 7.0 mi South 10.4 mph - N/A   Overcast
4:53 AM 71.6 °F 71.6 °F 100% 30.02 in 2.0 mi South 8.1 mph - N/A   Overcast
4:58 AM 71.6 °F 71.6 °F 100% 30.03 in 3.0 mi South 9.2 mph - N/A   Overcast
5:23 AM 71.6 °F 71.6 °F 100% 30.03 in 9.0 mi South 9.2 mph - N/A   Overcast
5:43 AM 71.6 °F 71.6 °F 100% 30.03 in 10.0 mi South 10.4 mph - N/A   Overcast
5:58 AM 72.0 °F 72.0 °F 100% 30.04 in 10.0 mi South 9.2 mph - N/A   Overcast
6:58 AM 71.8 °F 71.8 °F 100% 30.06 in 10.0 mi South 9.2 mph - N/A   Overcast
7:58 AM 72.3 °F 72.3 °F 100% 30.08 in 10.0 mi South 12.7 mph - N/A   Overcast
8:28 AM 73.4 °F 73.4 °F 100% 30.08 in 10.0 mi South 11.5 mph - N/A   Overcast
8:55 AM 73.9 °F 73.2 °F 98% 30.08 in 10.0 mi South 11.5 mph - N/A   Mostly Cloudy
9:12 AM 73.4 °F 71.6 °F 94% 30.09 in 10.0 mi South 12.7 mph - N/A   Mostly Cloudy
9:55 AM 76.1 °F 70.7 °F 83% 30.10 in 10.0 mi South 11.5 mph - N/A   Mostly Cloudy
10:55 AM 77.2 °F 69.8 °F 78% 30.09 in 10.0 mi South 18.4 mph 23.0 mph N/A   Mostly Cloudy
11:55 AM 77.9 °F 69.3 °F 75% 30.06 in 10.0 mi South 16.1 mph 23.0 mph N/A   Mostly Cloudy
12:55 PM 77.2 °F 69.3 °F 76% 30.04 in 10.0 mi South 18.4 mph 23.0 mph N/A   Mostly Cloudy
1:55 PM 76.6 °F 69.1 °F 77% 30.03 in 10.0 mi South 16.1 mph 24.2 mph N/A   Mostly Cloudy
2:55 PM 75.9 °F 69.1 °F 79% 30.01 in 10.0 mi South 16.1 mph - N/A   Mostly Cloudy
3:55 PM 75.2 °F 69.3 °F 82% 30.04 in 10.0 mi South 13.8 mph - N/A   Mostly Cloudy
4:55 PM 73.6 °F 70.2 °F 89% 30.04 in 10.0 mi South 12.7 mph - N/A   Overcast
5:10 PM 73.4 °F 69.8 °F 88% 30.02 in 7.0 mi South 12.7 mph - N/A   Overcast
5:55 PM 72.7 °F 70.9 °F 94% 30.04 in 7.0 mi South 12.7 mph - N/A   Overcast
6:49 PM 73.4 °F 71.6 °F 94% 30.04 in 10.0 mi South 11.5 mph - N/A   Overcast
6:55 PM 72.7 °F 71.4 °F 96% 30.05 in 7.0 mi South 9.2 mph - N/A   Overcast
7:55 PM 72.7 °F 71.8 °F 97% 30.05 in 7.0 mi South 11.5 mph - N/A   Overcast
8:22 PM 73.4 °F 71.6 °F 94% 30.05 in 7.0 mi South 11.5 mph - N/A   Overcast
8:55 PM 72.7 °F 72.3 °F 99% 30.06 in 7.0 mi South 12.7 mph 18.4 mph N/A   Overcast
9:43 PM 73.4 °F 71.6 °F 94% 30.05 in 10.0 mi South 12.7 mph - N/A   Overcast
9:57 PM 72.7 °F 72.1 °F 98% 30.06 in 7.0 mi South 11.5 mph - N/A   Overcast
10:55 PM 72.5 °F 71.2 °F 96% 30.08 in 7.0 mi South 10.4 mph - N/A   Overcast
11:28 PM 71.6 °F 71.6 °F 100% 30.07 in 7.0 mi South 9.2 mph - N/A   Overcast
11:55 PM 72.1 °F 71.2 °F 97% 30.08 in 7.0 mi South 8.1 mph - N/A   Overcast